Location: Riley Place
(34.8112°N, 106.3364°W)
Time: 03:40:48
(UTC+00:00)

Daily predictions for brighter satellites

Satellite Brightness Start Highest point End
(mag) Time Altitude Azimuth Time Altitude Azimuth Time Altitude Azimuth
Cosmos 1464 Rocket 4.5 02:31:01 10° NNW 02:37:16 68° W 02:43:23 10° S
ERS-2 3.3 02:39:17 10° NE 02:42:15 23° E 02:45:11 10° SSE
USA 238 DEB 4.2 02:35:25 10° NNW 02:42:40 57° NE 02:50:09 10° SE
USA 238 4.2 02:35:31 10° NNW 02:42:46 57° NE 02:50:15 10° SE
Helios 1A Rocket 3.3 02:38:56 10° SE 02:42:46 44° ENE 02:46:38 10° N
Ariane Rocket 4.1 02:38:43 10° SE 02:42:57 28° ENE 02:47:12 10° NNE
SEDSat Delta rocket 3.7 02:42:05 10° SW 02:45:37 30° SSE 02:49:13 10° E
OAO 2 Rocket 3.4 02:42:23 10° W 02:47:28 87° N 02:52:28 10° E
Cosmos 1818 4.2 02:44:10 10° SW 02:49:31 64° WNW 02:54:58 10° NNE
Cosmos 1242 Rocket 4.4 02:49:25 10° NE 02:51:41 16° ENE 02:53:50 10° ESE
EPKM 3.8 02:51:12 10° SSW 02:52:49 15° S 02:55:13 10° SE
USA 307 3.9 02:49:55 10° NNW 02:53:51 35° NE 02:57:40 10° ESE
Cosmos 2221 4.5 02:51:59 10° NE 02:54:01 13° ENE 02:56:04 10° ESE
MetOp-A 4.5 02:51:09 10° S 02:56:28 70° WSW 03:01:49 10° NNW
Tsikada Rocket 4.3 02:52:12 10° SSW 02:58:21 73° W 03:04:36 10° N
Hubble Space Telescope 1.9 03:01:16 10° SW 03:04:43 26° S 03:07:16 15° ESE
Cosmos 1697 Rocket 4.1 03:01:13 10° N 03:05:42 23° ENE 03:09:29 13° ESE
USA 186 2.8 03:03:48 10° S 03:06:59 45° W 03:10:02 10° NNW
Cosmos 1892 3.4 03:03:37 10° SSW 03:07:21 56° W 03:11:05 10° N
Cosmos 1689 Rocket 4.2 03:05:01 10° NNW 03:07:27 28° WNW 03:09:52 10° SW
Cosmos 1953 Rocket 3.5 03:03:37 10° S 03:08:04 74° E 03:12:33 10° N
Cosmos 2082 Rocket 2.9 03:03:34 10° SSE 03:08:23 30° ESE 03:13:13 10° NE
USA 305 3.2 03:06:32 10° NW 03:10:38 53° NE 03:13:42 17° ESE
USA 308 3.4 03:06:39 10° NNW 03:10:46 48° NE 03:13:51 16° ESE
Cosmos 1833 Rocket 2.6 03:06:16 10° SSW 03:11:52 74° ESE 03:17:30 10° NNE
Resurs 1-3 3.6 03:10:54 11° SSE 03:15:07 63° ENE 03:19:28 10° N
Cosmos 773 Rocket 4.5 03:10:50 10° SSE 03:15:39 39° ESE 03:20:27 10° NE
Cosmos 2150 Rocket 4.1 03:13:00 10° NNW 03:18:26 89° WSW 03:23:46 11° SSE
Cosmos 2298 Rocket 4.2 03:17:33 10° NNW 03:22:52 75° WSW 03:28:10 10° S
Cosmos 1125 Rocket 3.5 03:18:48 10° NNW 03:24:08 85° ENE 03:28:43 14° SSE
Cosmos 1869 3.7 03:24:39 10° NNW 03:28:29 60° W 03:32:14 10° S
Cosmos 1825 2.4 03:25:53 10° SSW 03:29:35 68° W 03:33:19 10° N
Cosmos 2058 2.8 03:25:31 10° S 03:29:38 72° E 03:33:48 10° N
Centaur D AC-29 3.6 03:00:44 10° W 03:30:27 37° SW 03:35:12 16° SSE
Landsat 7 4.2 03:28:04 21° SE 03:30:56 46° ENE 03:35:28 10° N
OBJECT-B 3.0 03:29:34 10° SSW 03:32:11 23° W 03:34:50 10° NW
Cosmos 2279 Rocket 4.0 03:26:34 10° N 03:32:41 63° E 03:37:33 17° SSE
USA 306 2.8 03:30:27 10° NW 03:34:44 88° NE 03:36:55 28° SE
Cosmos 1842 Rocket 4.3 03:30:38 10° NNE 03:34:47 36° E 03:36:31 26° ESE
COSMOS 2406 3.4 03:29:46 10° SSW 03:35:25 76° WNW 03:41:08 10° NNE
SJ-6B 4.4 03:34:06 10° SSW 03:37:25 30° W 03:40:44 10° NW
Cosmos 1076 Rocket 4.0 03:39:35 29° SE 03:41:04 38° E 03:45:06 10° NNE
OAO 1 Rocket 4.4 03:40:58 10° WSW 03:46:19 84° S 03:50:12 19° E
Cosmos 1437 Rocket 3.5 03:42:52 10° NNW 03:46:35 49° W 03:49:36 15° SSW
Atlas Centaur 2 2.4 03:44:39 10° SW 03:47:13 24° S 03:47:13 24° S
Resurs 01 Rocket 1.5 03:46:24 26° SSE 03:48:51 84° ENE 03:53:18 10° N
BREEZE M DEB (TANK) 2.4 03:46:55 10° SW 03:49:11 56° SE 03:57:20 10° ENE
Cosmos 1656 3.8 03:43:45 10° NNW 03:49:22 72° WSW 03:53:02 22° S
Cosmos 1437 2.1 03:47:35 10° N 03:50:22 90° S 03:50:30 78° S
Cosmos 1980 Rocket 3.3 03:47:07 10° N 03:51:57 28° ENE 03:53:52 23° E
ATLAS 2AS CENTAUR R/B 3.4 03:45:12 10° SW 03:53:03 69° WNW 04:00:53 10° NNE
Cosmos 1538 Rocket 4.3 03:53:58 31° SSE 03:55:58 45° ESE 04:00:55 10° NNE
Nadezhda 4 Rocket 3.9 03:52:26 21° SSE 03:56:37 63° E 04:02:43 10° NNE
RESURS DK-1 2.2 03:53:35 13° SSW 03:57:14 79° ESE 04:01:23 10° NNE
Cosmos 2098 Rocket 2.6 04:03:00 47° NNE 04:03:00 47° NNE 04:05:21 10° NNE
H-2A R/B 2.4 03:57:00 10° WSW 04:02:15 27° SSW 04:02:15 27° SSW
USA 245 4.4 04:00:12 34° SE 04:02:28 55° ENE 04:07:23 10° N
OAO 3 Copernicus 4.2 03:57:59 10° W 04:03:01 88° S 04:05:31 30° E
Cosmos 1633 2.3 04:03:08 59° S 04:03:45 83° E 04:07:21 10° N
SPOT 1/Viking Rocket 3.5 04:09:03 40° SSE 04:10:57 78° ENE 04:16:10 10° N
MetOp-B 4.1 04:10:08 35° SSE 04:12:28 89° W 04:17:50 10° NNW
USA 267 3.1 04:08:43 10° NE 04:15:16 76° SE 04:21:49 10° SW
ARIANE 5 R/B 3.2 04:16:06 41° E 04:16:19 42° ENE 04:20:33 10° N
ATLAS 3B R/B 3.8 04:10:32 10° NNW 04:16:57 34° NE 04:20:00 25° E
CENTAUR R/B 4.2 04:10:38 10° NW 04:18:26 40° WSW 04:25:02 16° S
Cosmos 2360 4.1 04:13:28 10° NNW 04:19:11 86° ENE 04:20:57 46° SSE
Sakura Rocket 4.3 04:14:11 10° W 04:21:49 46° SSW 04:23:06 41° SSE
SPOT 5 3.4 04:23:22 37° ENE 04:23:22 37° ENE 04:27:06 10° N
SL-16 R/B 4.2 04:21:15 10° NNE 04:24:21 15° NE 04:25:32 14° ENE
Meteor 2-8 Rocket 4.3 04:22:08 10° N 04:28:19 84° E 04:30:19 46° SSE
CARTOSAT-1 3.4 04:28:49 73° E 04:28:51 73° ENE 04:33:10 10° N
CZ-2C R/B 4.5 04:24:48 10° N 04:29:11 49° WNW 04:31:52 21° SW
SEDSat Delta rocket 3.8 04:27:19 10° WSW 04:29:55 35° SW 04:29:55 35° SW
Cosmos 2221 3.6 04:27:42 10° NNW 04:31:44 40° W 04:33:03 31° SW
OAO 2 Rocket 3.1 04:27:16 10° W 04:32:15 70° SSW 04:32:23 70° S
USA 307 4.3 04:30:05 10° WNW 04:33:41 27° SW 04:33:45 27° SW
ERBS 4.3 04:36:37 10° NNW 04:38:22 24° N 04:38:22 24° N
Cosmos 923 Rocket 4.4 04:43:33 47° ENE 04:43:33 47° ENE 04:47:52 10° NNE
Terra 2.4 04:43:36 44° NE 04:43:36 44° NE 04:47:42 10° N
Cosmos 371 Rocket 3.5 04:39:20 10° N 04:43:47 57° NE 04:43:47 57° NE
Hubble Space Telescope 3.1 04:41:45 10° WSW 04:42:35 15° WSW 04:42:35 15° WSW
Cosmos 1606 4.0 04:42:46 10° NNW 04:46:11 33° W 04:46:14 33° W
Meteor 1-26 Rocket 4.5 04:40:48 10° N 04:46:37 53° E 04:46:51 52° E
Cosmos 1697 Rocket 3.5 04:44:29 10° NW 04:49:48 43° WSW 04:51:14 36° SW
Cosmos 2082 Rocket 3.9 04:47:23 10° WSW 04:52:19 31° WNW 04:57:19 10° N
Cosmos 2278 3.5 04:52:24 10° NNW 04:58:05 85° ENE 04:58:17 82° ESE
Cosmos 2151 4.1 05:00:21 38° W 05:00:33 38° W 05:04:31 10° N
Cosmos 1782 4.4 04:56:41 10° N 04:58:50 28° NNE 04:58:50 28° NNE
GP-B 4.0 05:08:30 10° N 05:12:19 45° WNW 05:12:19 45° WNW
Cosmos 2360 Rocket 4.1 05:11:04 10° NNE 05:14:34 17° NE 05:14:45 17° ENE
Cosmos 332 Rocket 4.4 05:14:33 10° NNW 05:18:19 53° N 05:18:19 53° N
Cosmos 1680 Rocket 4.0 05:20:47 56° NNE 05:20:47 56° NNE 05:24:54 10° NNE
ERS-1 Rocket 3.7 05:20:52 47° W 05:20:52 47° W 05:25:23 10° NNW
Cosmos 1151 Rocket 4.4 05:18:59 10° N 05:21:32 35° N 05:21:32 35° N
Cosmos 1809 Rocket 4.4 05:25:23 81° W 05:25:26 81° W 05:31:38 10° N
Cosmos 1980 Rocket 3.3 05:30:54 10° NW 05:35:38 34° W 05:35:38 34° W
Cosmos 2322 Rocket 3.0 05:38:25 10° N 05:42:47 44° NNE 05:42:47 44° NNE
ISS -0.2 05:43:17 10° NNW 05:43:31 11° NNW 05:43:31 11° NNW
ATLAS 3B R/B 3.4 06:00:56 10° NW 06:07:15 47° W 06:07:15 47° W
SL-16 R/B 3.0 06:03:22 10° NNW 06:07:23 47° NW 06:07:23 47° NW
Cosmos 2219 Rocket 4.2 06:07:45 10° NNE 06:11:15 19° NE 06:11:15 19° NE
Cosmos 1655 Rocket 4.5 06:17:51 56° NW 06:17:51 56° NW 06:23:24 10° N
Terra 4.4 06:22:29 13° WNW 06:22:29 13° WNW 06:23:47 10° WNW
COSMOS 2455 4.0 06:27:35 35° NE 06:27:35 35° NE 06:30:57 10° NNE
USA 234 3.5 06:28:20 63° NNE 06:28:20 63° NNE 06:34:30 10° NW
Cosmos 2333 Rocket 3.4 06:47:55 10° N 06:51:37 37° NNE 06:51:37 37° NNE
Cosmos 2360 Rocket 3.6 06:53:27 10° NNW 06:56:30 33° NW 06:56:30 33° NW
Cosmos 2297 Rocket 4.0 07:18:52 23° ENE 07:18:52 23° ENE 07:21:18 10° NE
NOSS 3-1 (C) 4.2 07:10:21 10° NNW 07:18:14 70° ENE 07:18:37 69° ENE
Cosmos 2237 Rocket 4.1 07:21:48 10° N 07:26:12 23° ENE 07:26:22 23° ENE
Cosmos 2227 Rocket 4.0 07:29:32 22° ENE 07:29:32 22° ENE 07:32:00 10° NE
USA 229 DEB 4.5 07:22:20 10° NNW 07:29:34 51° NE 07:30:34 48° ENE
USA 229 4.5 07:22:27 10° NNW 07:29:40 51° NE 07:30:42 48° ENE
CZ-2D R/B 4.1 07:39:46 10° NE 07:42:21 20° ENE 07:42:21 20° ENE
NOSS 3-1 (A) 4.3 07:42:17 10° NNW 07:50:10 69° ENE 07:51:23 62° E
COSMOS 2428 4.0 07:45:10 10° NNW 07:48:18 34° NNW 07:48:18 34° NNW
Cosmos 2219 Rocket 3.8 07:50:27 10° NNW 07:52:56 26° NW 07:52:56 26° NW
Cosmos 2219 4.0 08:16:32 50° NNE 08:16:32 50° NNE 08:20:44 10° NNE
Cosmos 1709 Rocket 4.4 08:22:08 56° NNW 08:22:08 56° NNW 08:27:17 10° N
Cosmos 909 Rocket 4.2 08:29:11 71° NNW 08:29:11 71° NNW 08:35:51 10° NNE
Timation 2 Rocket 4.2 08:31:10 62° NNE 08:31:10 62° NNE 08:36:09 10° NNE
Cosmos 2251 Rocket 4.5 08:36:33 43° ENE 08:36:33 43° ENE 08:40:24 10° NNE
Cosmos 2082 4.3 08:36:22 53° ENE 08:36:22 53° ENE 08:40:57 10° NNE
Lacrosse 5 3.0 08:37:08 40° N 08:37:08 40° N 08:40:38 10° NNE
ATLAS 5 CENTAUR R/B 2.7 08:31:00 10° NNW 08:35:47 61° NNW 08:35:47 61° NNW
Meteor 1-11 Rocket 4.5 08:39:09 45° NNW 08:39:09 45° NNW 08:43:11 10° N
Cosmos 2184 Rocket 4.1 08:44:11 64° E 08:44:11 64° E 08:50:17 10° NNE
SL-16 R/B 2.6 08:45:15 65° E 08:45:35 67° ENE 08:51:42 10° N
Resurs 1-4 Rocket 2.6 08:40:22 10° NNE 08:44:30 56° N 08:44:30 56° N
Cosmos 2297 Rocket 3.6 09:00:40 28° NW 09:00:40 28° NW 09:05:04 10° N
AQUA 4.5 08:57:02 10° NNE 09:00:39 52° NNE 09:00:39 52° NNE
NPP 3.9 09:00:56 10° N 09:05:37 63° NNW 09:05:37 63° NNW
Cosmos 2074 Rocket 3.9 09:07:56 77° W 09:07:56 77° W 09:14:08 10° N
Cosmos 2237 Rocket 3.4 09:05:03 10° NW 09:08:09 30° NW 09:08:09 30° NW
Cosmos 2227 Rocket 3.4 09:11:21 30° NW 09:11:21 30° NW 09:15:58 10° N
Milstar 3 4.2 09:15:44 21° SE 09:15:44 21° SE 09:19:17 10° ESE
ADEOS Rocket 2.6 09:16:08 83° SE 09:16:22 88° ENE 09:21:53 10° NNW
CZ-2D R/B 3.0 09:19:11 10° N 09:23:40 37° WNW 09:23:40 37° WNW
Meteor 2-9 Rocket 3.9 09:25:03 86° NW 09:25:03 86° NW 09:30:18 10° N
ADEOS II 2.0 09:20:30 10° N 09:25:41 79° WNW 09:25:41 79° WNW
IRS-1D 3.4 09:24:08 10° NNE 09:29:07 81° ESE 09:29:10 80° ESE
Cosmos 614 Rocket 4.5 09:29:57 48° NW 09:29:57 48° NW 09:34:36 10° N
Cosmos 1975 3.6 09:33:01 47° N 09:33:01 47° N 09:36:02 10° N
NOSS 3-3 (A) 3.7 09:32:01 65° SSE 09:32:41 73° ESE 09:38:49 10° NE
NOSS 3-3 (C) 3.7 09:32:09 65° SSE 09:32:48 72° ESE 09:38:54 10° NE
ATLAS CENTAUR R/B 2.7 09:33:48 29° E 09:33:48 29° E 09:36:29 10° NE
Iridium 4 Rocket 3.8 09:28:36 10° N 09:34:13 79° E 09:35:31 55° SSE
SL-16 R/B 2.1 09:28:49 10° NNW 09:34:31 89° WSW 09:35:34 61° SSE
Cosmos 2263 Rocket 2.2 09:36:12 62° SSE 09:37:03 73° ESE 09:42:44 10° NNE
Cosmos 2221 Rocket 4.3 09:35:30 10° NNW 09:38:51 44° NW 09:38:51 44° NW
Cosmos 1461 3.3 09:41:30 64° NW 09:41:30 64° NW 09:45:43 10° NNE
Cosmos 407 Rocket 3.3 09:41:19 74° SW 09:41:47 85° WNW 09:47:06 10° NNE
Cosmos 1707 3.6 09:41:04 10° N 09:44:43 43° E 09:45:07 41° E
Cosmos 1023 Rocket 4.3 09:46:08 70° SW 09:46:43 80° WNW 09:52:00 10° NNE
CZ-4C R/B 4.0 09:41:47 10° NNW 09:49:02 47° NE 09:57:11 10° SE
Helios 1B rocket 4.3 09:49:03 10° NNW 09:51:15 20° NW 09:51:15 20° NW
Cosmos 2341 Rocket 4.0 09:51:38 38° S 09:54:14 80° E 10:00:28 10° N
ATLAS 2A CENTAUR R/B 4.2 09:51:02 38° SW 09:54:38 60° S 10:34:53 10° ESE
Cosmos 1674 Rocket 3.5 09:51:25 10° NNW 09:55:42 69° W 09:55:42 69° W
Cosmos 1238 Rocket 4.2 09:57:30 22° NNW 09:57:30 22° NNW 09:58:57 10° N
COSMOS 2441 4.4 09:58:31 10° NNE 10:03:20 76° ESE 10:04:52 43° S
Nadezhda 3 Rocket 4.2 10:03:02 10° NNW 10:09:10 53° W 10:11:14 38° SW
Cosmos 1943 4.3 10:08:31 10° N 10:13:58 44° ENE 10:19:22 10° SE
Cosmos 1975 Rocket 4.4 10:10:00 10° N 10:14:07 38° E 10:18:10 10° SSE
IRS-P3 4.0 10:09:47 10° NNE 10:15:09 87° WNW 10:17:33 34° SSW
CBERS-1 4.5 10:10:43 10° N 10:15:35 45° WNW 10:16:46 38° WSW
IDEFIX/ARIANE 42P 2.9 10:10:58 10° N 10:15:55 47° WNW 10:17:13 38° WSW
CZ-3B R/B 4.1 10:12:03 29° SW 10:16:19 39° S 10:22:14 10° ESE
Cosmos 1340 4.0 10:12:57 10° N 10:16:28 38° ENE 10:19:58 10° SSE
Cosmos 1378 Rocket 3.9 10:12:44 10° NNW 10:16:52 44° W 10:16:54 44° W
Cosmos 1400 Rocket 3.7 10:16:10 24° SSE 10:18:04 43° E 10:21:46 10° NNE
Cosmos 2344 3.8 10:14:50 31° WSW 10:18:28 56° NW 10:25:54 10° NNE
Cosmos 1900 4.5 10:16:57 36° S 10:18:57 70° ESE 10:23:53 10° NNE
CZ-2C R/B 3.5 10:15:05 10° NNE 10:19:20 37° E 10:23:07 13° SSE
Lacrosse 5 4.3 10:17:43 10° NW 10:19:38 12° NNW 10:21:33 10° N
Cosmos 1908 Rocket 4.0 10:19:31 40° W 10:19:49 41° W 10:23:55 10° N
Cosmos 1626 4.3 10:17:22 10° NNE 10:20:30 26° ENE 10:23:37 10° SE
Cosmos 1356 Rocket 4.4 10:20:55 30° WNW 10:20:55 30° WNW 10:24:17 10° NNW
Cosmos 1674 3.1 10:23:11 10° N 10:26:59 61° E 10:29:59 15° SSE
SL-16 R/B 4.1 10:30:20 15° W 10:30:20 15° W 10:33:07 10° WNW
USA 215 3.2 10:24:42 10° NE 10:31:16 90° NNE 10:35:19 26° SW
Meteor 1-12 Rocket 4.2 10:28:01 23° S 10:31:41 87° W 10:37:24 10° N
Centaur AC-112 4.3 10:33:52 27° SW 10:36:52 48° SSE 11:00:07 10° E
CZ-4C R/B 3.7 10:40:07 32° SW 10:41:24 43° W 10:45:24 10° NNW
ASTRO E2 2.9 10:40:23 36° SW 10:41:34 50° S 10:45:26 10° E
CZ-4B R/B 3.4 10:42:52 10° N 10:47:38 60° WNW 10:50:38 22° SSW
Cosmos 1954 Rocket 4.5 10:44:57 25° SW 10:47:40 46° WNW 10:52:47 10° N
Cosmos 1025 Rocket 3.9 10:43:39 10° N 10:47:52 51° E 10:52:05 10° SSE
Cosmos 44 3.4 10:43:56 10° NNW 10:49:07 85° ENE 10:53:55 10° SSE
Cosmos 1821 Rocket 4.5 10:43:32 10° S 10:49:35 60° E 10:55:35 10° NNE
Cosmos 1844 Rocket 3.2 10:45:26 11° S 10:50:40 60° ESE 10:56:15 10° NNE
ARIANE 5 R/B 2.9 10:47:46 10° N 10:52:43 46° WNW 10:56:00 20° SW
CZ-2D R/B 3.7 10:52:55 10° N 10:56:47 48° WNW 10:59:15 21° SW
Okean 2 Rocket 3.2 10:54:54 10° S 10:59:24 80° E 11:03:56 10° N
FENGYUN 3A 3.8 10:55:40 10° NNE 11:01:06 77° ESE 11:06:29 10° S
Cosmos 1603 3.6 10:55:59 10° NNW 11:01:34 68° WSW 11:07:09 10° S
CZ-2C R/B 2.7 10:58:35 10° NNE 11:02:19 86° ESE 11:06:02 10° SSW
Cosmos 1805 3.8 11:01:49 21° SW 11:03:59 39° W 11:07:40 10° N
Spot 4 Rocket 4.1 11:00:07 10° N 11:05:12 62° WNW 11:09:59 12° SSW
Sich 1 Rocket 3.7 11:02:00 15° SSW 11:05:34 57° W 11:09:55 10° N
BREEZE M DEB (TANK) 3.6 11:00:21 13° SSW 11:06:03 39° SE 11:08:54 10° ENE
MOS 1 Rocket 4.1 11:04:57 10° SSE 11:09:50 60° ENE 11:15:01 10° N
Cosmos 1867 4.3 11:05:25 10° S 11:10:38 51° ESE 11:15:55 10° NE
ATLAS CENTAUR R/B 3.2 11:09:58 11° W 11:12:00 16° NW 11:14:29 10° N
IUS-17 SRM-1 4.4 11:11:22 16° SW 11:12:26 17° SW 11:14:28 10° S
Cosmos 1726 2.9 11:13:52 10° S 11:17:23 52° E 11:20:58 10° NNE
Cosmos 1346 Rocket 3.3 11:14:08 10° N 11:18:01 61° E 11:21:51 10° SSE
Cosmos 2151 Rocket 3.5 11:14:00 10° S 11:18:22 79° W 11:22:47 10° N
SL-14 R/B 3.2 11:17:39 10° N 11:21:33 77° W 11:25:28 10° S
Cosmos 2263 Rocket 4.1 11:18:29 10° W 11:21:33 15° NW 11:24:39 10° NNW
ALOS 2.4 11:24:34 10° N 11:29:09 58° WNW 11:33:43 10° SSW
GEOS 3 Rocket 3.8 11:24:42 10° SSE 11:29:55 54° WSW 11:35:08 10° NW
Cosmos 1536 Rocket 3.7 11:26:10 10° N 11:30:33 80° E 11:34:56 10° S
Meteor 1-22 Rocket 4.3 11:26:26 10° SSW 11:32:16 72° W 11:37:53 10° N
Cosmos 1766 4.3 11:29:51 10° SW 11:33:09 27° WNW 11:36:29 10° NNW
Cosmos 1470 2.8 11:30:12 10° S 11:34:08 89° E 11:38:04 10° N
Cosmos 1184 Rocket 4.4 11:31:17 10° N 11:34:17 37° E 11:37:16 10° SSE
Cosmos 1741 Rocket 4.4 11:30:38 10° SW 11:35:41 49° WNW 11:40:48 10° N
SL-08 R/B 4.5 11:32:00 10° SSW 11:36:00 25° W 11:40:04 10° NW
CZ-4C R/B 3.5 11:30:29 10° NW 11:37:42 40° WSW 11:45:33 10° S
Cosmos 1818 4.1 11:34:47 10° NNW 11:40:15 67° ENE 11:45:39 10° SE
Cosmos 1763 Rocket 3.6 11:37:22 10° NNW 11:42:36 61° WSW 11:47:46 10° S
USA 290 2.5 11:40:48 10° NNW 11:43:55 45° WSW 11:47:01 10° S
Meteor 2-10 4.1 11:40:22 10° SSW 11:45:21 59° W 11:50:30 10° N
USA 281 3.3 11:40:55 10° SSE 11:47:29 87° WSW 11:54:05 10° NNW
